TimePDT,TemperatureF,Dew PointF,Humidity,Sea Level PressureIn,VisibilityMPH,Wind Direction,Wind SpeedMPH,Gust SpeedMPH,PrecipitationIn,Events,Conditions,WindDirDegrees,DateUTC
12:48 AM,51.1,7.0,17,30.06,10.0,ENE,16.1,25.3,N/A,,Clear,60,2012-10-27 07:48:00
1:48 AM,51.1,7.0,17,30.05,10.0,ENE,15.0,-,N/A,,Clear,60,2012-10-27 08:48:00
2:48 AM,50.0,6.1,17,30.02,10.0,ENE,17.3,24.2,N/A,,Clear,60,2012-10-27 09:48:00
3:48 AM,50.0,6.1,17,30.00,10.0,ENE,16.1,24.2,N/A,,Clear,60,2012-10-27 10:48:00
4:48 AM,50.0,8.1,18,30.01,10.0,NE,16.1,25.3,N/A,,Clear,50,2012-10-27 11:48:00
5:48 AM,50.0,9.0,19,30.03,10.0,ENE,17.3,25.3,N/A,,Clear,60,2012-10-27 12:48:00
6:48 AM,52.0,8.1,17,30.03,10.0,ENE,21.9,28.8,N/A,,Clear,70,2012-10-27 13:48:00
7:48 AM,53.1,6.1,15,30.04,10.0,ENE,18.4,27.6,N/A,,Clear,70,2012-10-27 14:48:00
8:48 AM,55.9,7.0,14,30.04,10.0,ENE,19.6,27.6,N/A,,Clear,70,2012-10-27 15:48:00
9:48 AM,59.0,7.0,13,30.04,10.0,ENE,19.6,26.5,N/A,,Clear,70,2012-10-27 16:48:00
10:48 AM,63.0,9.0,12,30.04,10.0,ENE,16.1,26.5,N/A,,Clear,70,2012-10-27 17:48:00
11:48 AM,64.9,14.0,14,30.04,10.0,East,18.4,25.3,N/A,,Clear,80,2012-10-27 18:48:00
12:48 PM,68.0,19.0,15,30.01,10.0,East,17.3,24.2,N/A,,Clear,80,2012-10-27 19:48:00
1:48 PM,68.0,19.0,15,29.99,10.0,East,18.4,24.2,N/A,,Clear,80,2012-10-27 20:48:00
2:48 PM,69.1,19.0,15,29.98,10.0,ENE,13.8,21.9,N/A,,Clear,70,2012-10-27 21:48:00
3:48 PM,68.0,18.0,15,29.97,10.0,ENE,11.5,-,N/A,,Clear,70,2012-10-27 22:48:00
4:48 PM,66.0,17.1,15,29.97,10.0,ENE,12.7,21.9,N/A,,Clear,70,2012-10-27 23:48:00
5:48 PM,63.0,18.0,18,29.97,10.0,ENE,13.8,-,N/A,,Clear,70,2012-10-28 00:48:00
6:48 PM,63.0,16.0,16,29.98,10.0,East,16.1,-,N/A,,Clear,80,2012-10-28 01:48:00
7:48 PM,62.1,16.0,17,29.99,10.0,ENE,13.8,-,N/A,,Clear,70,2012-10-28 02:48:00
8:48 PM,61.0,17.1,18,30.00,10.0,East,13.8,-,N/A,,Clear,80,2012-10-28 03:48:00
9:48 PM,62.1,17.1,18,30.01,10.0,East,13.8,-,N/A,,Clear,80,2012-10-28 04:48:00
10:48 PM,62.1,17.1,18,30.01,10.0,East,16.1,-,N/A,,Clear,80,2012-10-28 05:48:00
11:48 PM,61.0,18.0,19,30.01,10.0,ENE,15.0,-,N/A,,Clear,70,2012-10-28 06:48:00